sat.trackr.live / text

‹ back to catalog

ONEWEB-0012

NORAD 44057 · 2019-010A

PAYLOAD ACTIVE UNKNOWN

§ Identity

Operator
Country
UK
Launch date
2019-02-27
Launch site
FRGUI
Launch vehicle
Mass (kg)
RCS (m²)

Purposes: comms

External: N2YO · Heavens-Above · Gunter

§ Orbital elements

Epoch: 2026-05-25T05:25:34.544064Z

Period
109.37 min
Inclination
87.9106°
Eccentricity
0.0002299
Mean motion
13.16593331 rev/d
Perigee alt
1,196.0 km
Apogee alt
1,199.5 km
Semi-major
7,575.9 km
B*
1.8678e-4
RAAN
233.3439°
Arg perigee
92.4665°
Mean anomaly
267.6729°
Rev number
34,854

§ Raw data

ONEWEB-00121 44057U 19010A   26145.22609426  .00000084  00000+0  18678-3 0  99942 44057  87.9106 233.3439 0002299  92.4665 267.6729 13.16593331348542

JSON: /api/v1/satellites/44057 · /tle

For live sub-satellite position, see the globe view (requires WebGL).

§ Visibility from observer

Set your observer location to see the next 7 days of passes ≥ 10°. The values pass through the URL so the page stays shareable.

No JS? Fill the form by hand. The geolocation button needs JavaScript.